Miscellaneous Local Product
Issued by NWS Hastings, NE

Home | Current Version | Previous Version | Graphics & Text | Print | Product List | Glossary On
Versions: 1 2 3 4 5 6 7 8 9 10 11 12 13 14 15 16 17 18 19 20 21 22 23 24 25 26 27 28 29 30 31 32 33 34 35 36 37 38 39 40 41 42 43 44 45 46 47 48 49 50
000
AXUS43 KGID 260102
MISGRI

GID CWA HOURLY WEATHER ROUNDUP
NATIONAL WEATHER SERVICE HASTINGS NE
700 PM CST TUE NOV 25 2014

NOTE: "FAIR" INDICATES FEW OR NO CLOUDS BELOW 12,000 FEET WITH NO
SIGNIFICANT WEATHER AND/OR OBSTRUCTIONS TO VISIBILITY.

...SOUTH CENTRAL NEBRASKA...

CITY           SKY/WX    TMP DP  RH WIND       PRES   REMARKS
GRAND ISLAND   CLOUDY    42  23  46 S7        29.83F
HASTINGS       CLOUDY    43  19  38 S7        29.83F
KEARNEY        MOCLDY    37  18  44 SW7       29.84S WCI  32
ORD            MOCLDY    39  25  57 SW15      29.81R WCI  31
YORK           CLOUDY    45  25  45 SW9       29.87F
AURORA         CLOUDY    43  24  45 S10       29.84F
LEXINGTON      MOCLDY    38  22  51 SW6       29.84R WCI  34
HOLDREGE       CLOUDY    43  24  47 SW5       29.84S
HEBRON         CLOUDY    47  18  32 S8        29.91F

...NEBRASKA PANHANDLE...

CITY           SKY/WX    TMP DP  RH WIND       PRES   REMARKS
CHADRON        CLOUDY    48  29  47 NW17      29.90R
ALLIANCE       CLOUDY    36  28  73 NW12      29.88R WCI  28
SCOTTSBLUFF    MIX PCPN  34  32  92 W8        29.93S WCI  27
SIDNEY         LGT SNOW  33  31  92 N20       29.93R FOG     WCI  21

...WESTERN AND NORTH CENTRAL NEBRASKA...

CITY           SKY/WX    TMP DP  RH WIND       PRES   REMARKS
VALENTINE      CLOUDY    36  32  85 W10       29.82R WCI  28
AINSWORTH      LGT RAIN  37  32  83 NW18G24   29.81R WCI  27
ONEILL         CLOUDY    40  28  63 SW8       29.78S WCI  34
BROKEN BOW     CLOUDY    43  28  55 W20       29.84R
IMPERIAL       CLOUDY    43  30  60 NW21G29   29.89R
NORTH PLATTE   CLOUDY    43  26  51 NW16G23   29.88R
MCCOOK         CLOUDY    41  21  44 NE6       29.86R

...EASTERN NEBRASKA...

CITY           SKY/WX    TMP DP  RH WIND       PRES   REMARKS
NORFOLK        LGT RAIN  40  32  73 S8        29.84F WCI  34
SO SIOUX CITY  CLOUDY    37  24  59 SE9       29.89F WCI  30
TEKAMAH        CLOUDY    36  24  62 SE13      29.91F WCI  27
COLUMBUS       CLOUDY    45  25  45 SW8       29.87F
ALBION         CLOUDY    40  26  58 S3        29.82F
OMAHA EPPLEY   CLOUDY    38  24  57 S14       29.95F WCI  30
OFFUTT AFB     CLOUDY    37  25  61 SE13      29.94F WCI  29
MILLARD        CLOUDY    39  27  62 SE5       29.94F
LINCOLN        CLOUDY    43  25  49 SW9       29.93F
NEBRASKA CITY  CLOUDY    39  21  48 S12       29.96F WCI  31
BEATRICE       CLOUDY    42  26  52 S10       29.93F
FALLS CITY     MOCLDY    34  23  64 SE10      30.00F WCI  26

...NORTHERN KANSAS...

CITY           SKY/WX    TMP DP  RH WIND       PRES   REMARKS
GOODLAND       CLOUDY    45  21  38 N12       29.91R
HILL CITY      CLOUDY    45  13  27 SW6       29.88S
NORTON         CLOUDY    43   9  24 SW3       29.85R
PHILLIPSBURG   CLOUDY    46  18  31 S3        29.86F
SMITH CENTER   CLOUDY    43  19  39 SE10      29.88F
BELOIT         CLOUDY    45  21  39 S15       29.89F
HAYS           CLOUDY    45  18  33 S10       29.89F
RUSSELL        CLOUDY    45  21  38 S14       29.89F
CONCORDIA      CLOUDY    45  22  40 S14       29.93F
SALINA         CLOUDY    45  27  49 S9        29.97S
TOPEKA         CLOUDY    41  23  48 SE9       30.04F



USA.gov is the U.S. government's official web portal to all federal, state and local government web resources and services.